Regional Weather Roundup
Issued by NWS

Home | Current Version | Previous Version | Graphics & Text | Print | Product List | Glossary On
Versions: 1 2 3 4 5 6 7 8 9 10 11 12 13 14 15 16 17 18 19 20 21 22 23 24 25 26 27 28 29 30 31 32 33 34 35 36 37 38 39 40 41 42 43 44 45 46 47 48 49 50
000
ASUS45 KTFX 202119
RWRMT
MONTANA HOURLY WEATHER ROUNDUP
NATIONAL WEATHER SERVICE GREAT FALLS MT
319 PM MDT MON OCT 20 2014

NOTE: "FAIR" INDICATES FEW OR NO CLOUDS BELOW 12000 FEET WITH NO
SIGNIFICANT WEATHER AND/OR OBSTRUCTIONS TO VISIBILITY.

* THESE STATIONS ARE NOT UNDER NWS QUALITY CONTROL. THEY DO NOT
   REPORT WEATHER SUCH AS PRECIPITATION OR FOG.

MTZ001>007-043-202200-
WEST OF THE DIVIDE
CITY           SKY/WX    TMP DP  RH WIND       PRES   REMARKS
KALISPELL      SUNNY     68  41  38 CALM      29.76F
MISSOULA       SUNNY     66  37  34 CALM      29.78F
BUTTE          SUNNY     72  30  21 S15       29.91F
MULLAN PASS    SUNNY     57  30  36 VRB6      29.87F
* ESSEX        N/A       64  40  41 NW4G10     N/A
* LINCOLN      N/A       74  32  21 NW3        N/A
* LOOKOUT PASS N/A       65  34  32 SE7G12     N/A
* POLSON       N/A       65  43  45 N2         N/A
* RONAN APT    SUNNY     66  45  47 W5         N/A
* SEELEY LAKE  N/A       72  34  25 S3         N/A
* THOMP F APT  SUNNY     63  28  27 S8G19      N/A
$$

MTZ008-052>055-202200-
SOUTHWEST MONTANA
CITY           SKY/WX    TMP DP  RH WIND       PRES   REMARKS
BOZEMAN        SUNNY     75  32  21 NE3       29.88F
DILLON         SUNNY     75  30  19 S21G29    29.88F
W YELLOWSTONE  SUNNY     64  30  28 SW15G20   30.05F
* THREE FORKS  SUNNY     72  45  38 N/A        N/A
* BOULDER HILL N/A       68  31  25 SW17G23    N/A
* MONIDA PASS  N/A       61  27  27 SE14G24    N/A
* RAYNOLDS PAS N/A       66  43  43 SE12G23    N/A
* WHITEHALL    N/A       72  30  21 E3         N/A
* WISE RIVER   N/A       68  35  30 N4G10      N/A
$$

MTZ009>010-012-014-046-048-049-054-202200-
EAST SLOPES AND CENTRAL MONTANA
CITY           SKY/WX    TMP DP  RH WIND       PRES   REMARKS
CUT BANK       SUNNY     79  25  14 SW21      29.74F
GREAT FALLS    SUNNY     79  30  17 SW17G22   29.77F
HELENA         SUNNY     72  36  27 CALM      29.82F
MALMSTROM AFB  SUNNY     79  32  18 S17G25    29.78F
* CONRAD       SUNNY     79  30  17 SE15G24    N/A
* DEARBORN     N/A       75  30  19 S12G20     N/A
* EAST GLACIER N/A       68  25  20 W27G34     N/A
* MONARCH      N/A       69  27  21 S12G19     N/A
* PENDROY      N/A       75  32  21 SW12       N/A
* ROGERS PASS  N/A       70  28  21 SE9G21     N/A
* SAINT MARY   N/A       70  28  21 SW9G24     N/A
* SWEET GRASS  N/A       75  29  18 SW18G26    N/A
* WHITE SULPH  N/A       73  28  19 S10G19     N/A
$$

MTZ011-013-016-021-035-040-045-047-050-051-202200-
NORTH CENTRAL MONTANA
CITY           SKY/WX    TMP DP  RH WIND       PRES   REMARKS
HAVRE          SUNNY     79  34  20 SW16      29.73F
LEWISTOWN      SUNNY     77  34  21 SW15      29.85F
* CHINOOK      SUNNY     72  45  38 E5        29.74F
* FORT BENTON  SUNNY     81  30  16 SW13G18   29.74F
* CHESTER      N/A       78  28  16 SW7G15     N/A
* DENTON       N/A       82  37  20 SW15       N/A
* GEYSER       N/A       76  34  22 SW16       N/A
* JUDITH GAP   N/A       73  33  23 S9G17      N/A
* LOMA         N/A       80  36  20 SW3        N/A
$$

MTZ017>020-022>027-061-062-202200-
NORTHEAST MONTANA
CITY           SKY/WX    TMP DP  RH WIND       PRES   REMARKS
GLASGOW        SUNNY     72  43  35 SE12      29.79F
GLENDIVE       SUNNY     73  43  34 S10       29.86F
JORDAN         SUNNY     79  34  20 SW12      29.80F
SIDNEY         SUNNY     75  43  32 S10       29.85F
WOLF POINT     SUNNY     79  45  30 SE7       29.80F
* BEAVER HILL  N/A       74  41  31 S13G22     N/A
* CIRCLE       N/A       78  43  29 S12        N/A
* LINDSAY DVD  N/A       73  40  30 S12        N/A
* NAVAJO       N/A       72  41  33 S13        N/A
$$

MTZ028>042-056>058-202200-
SOUTHCENTRAL AND SOUTHEAST MONTANA
CITY           SKY/WX    TMP DP  RH WIND       PRES   REMARKS
BAKER          SUNNY     75  43  32 S16       29.90F
BILLINGS       SUNNY     79  25  14 SW10      29.87F
LIVINGSTON     SUNNY     79  28  15 SW15G24   29.89F
MILES CITY     SUNNY     75  39  27 VRB5      29.85F
* LAUREL APT   SUNNY     79  32  18 N/A        N/A
* ROUNDUP APT  SUNNY     79  34  20 SW9        N/A
* ALZADA       N/A       74  44  34 NE8        N/A
* HYSHAM       N/A       75  32  21 SW4        N/A
* LAME DEER    N/A       72  31  22 NE4G9      N/A
* REED POINT   N/A       74  32  21 E4         N/A
* ROSCOE HILL  N/A       72  23  16 NE11G16    N/A
$$

REGIONAL REPORTS...DAKOTAS
CITY           SKY/WX    TMP DP  RH WIND       PRES   REMARKS
WILLISTON      SUNNY     77  41  28 S15       29.84F
DICKINSON      SUNNY     73  41  32 S20G26    29.89F
BEACH          N/A       75  39  27 S16G21    29.89F
CROSBY         SUNNY     73  39  29 S16G23    29.85F
TIOGA          SUNNY     72  39  30 S16       29.91F
BISMARCK       SUNNY     73  36  26 S17G23    29.97F
GRAND FORKS    SUNNY     57  43  60 CALM      30.03F
FARGO          SUNNY     64  43  47 N6        30.03S
BUFFALO SD     SUNNY     75  39  27 SE17      29.86F
RAPID CITY     SUNNY     75  45  34 S18G30    29.93F
$$

REGIONAL REPORTS...WYOMING/IDAHO/WASHINGTON
CITY           SKY/WX    TMP DP  RH WIND       PRES   REMARKS
GILLETTE       SUNNY     79  27  15 S12       29.92F
SHERIDAN       SUNNY     79  30  17 N5        29.90F
CODY           SUNNY     73  28  19 SE13      29.94F
YELLOWSTONE LA SUNNY     57  36  46 VRB5      30.15F
SALMON         SUNNY     66  34  31 CALM      29.82F
MULLAN PASS    SUNNY     57  30  36 VRB6      29.87S
SAND POINT     PTCLDY    63  46  54 E3        29.76F
SPOKANE        PTSUNNY   66  43  43 SW15      29.76R
$$

REGIONAL REPORTS...ALBERTA
CITY           SKY/WX    TMP DP  RH WIND       PRES   REMARKS
CALGARY        SUNNY     73  30  20 S15       29.59F
LETHBRIDGE     SUNNY     77  27  16 SW23G33   29.66F
MEDICINE HAT   N/A       81  32  17 S14G24    29.65F
EDMONTON       PTSUNNY   70  37  30 W6        29.53F
WATERTON GATE  N/A       70  28  21 SW18G26    N/A
CARDSTON       N/A       73  30  20 SW13G18    N/A
MILK RIVER     N/A       77  27  16 SW18G28    N/A
$$

REGIONAL REPORTS...SASKATCHEWAN
CITY           SKY/WX    TMP DP  RH WIND       PRES   REMARKS
SWIFT CURRENT  SUNNY     75  30  19 SW16G23   29.71F
MOOSE JAW      N/A       75  45  34 S12       29.75F
REGINA         SUNNY     75  45  34 S16G22    29.77F
VAL MARIE      N/A       70  41  35 S9         N/A
ASSINIBOIA     N/A       77  36  23 S10        N/A
CORONACH       N/A       73  39  29 SE14       N/A

$$



USA.gov is the U.S. government's official web portal to all federal, state and local government web resources and services.